sat.trackr.live / text

‹ back to catalog

ERMIS-3

NORAD 68425 · 2026-067K

PAYLOAD ACTIVE UNKNOWN

§ Identity

Operator
Country
GREC
Launch date
2026-03-30
Launch site
AFWTR
Launch vehicle
Mass (kg)
RCS (m²)

External: N2YO · Heavens-Above · Gunter

§ Orbital elements

Epoch: 2026-05-24T20:41:30.106464Z

Period
94.83 min
Inclination
97.4573°
Eccentricity
0.0003380
Mean motion
15.18518389 rev/d
Perigee alt
508.0 km
Apogee alt
512.6 km
Semi-major
6,888.5 km
B*
2.1225e-4
RAAN
103.7264°
Arg perigee
73.6574°
Mean anomaly
286.5032°
Rev number
840

§ Raw data

ERMIS-31 68425U 26067K   26144.86215401  .00004313  00000+0  21225-3 0  99952 68425  97.4573 103.7264 0003380  73.6574 286.5032 15.18518389  8408

JSON: /api/v1/satellites/68425 · /tle

For live sub-satellite position, see the globe view (requires WebGL).

§ Visibility from observer

Set your observer location to see the next 7 days of passes ≥ 10°. The values pass through the URL so the page stays shareable.

No JS? Fill the form by hand. The geolocation button needs JavaScript.